Location: Bemmer
(51.5498°N, 5.6249°E)
Time: 12:40:46
(UTC+00:00)

Gbstr 26 Del rocket - Pass Details

Date: 03 March 2021
Orbit: 492 x 1264 km, 51.8° (Epoch: 16 April)

Event Time Altitude Azimuth Distance (km) Brightness Sun altitude
Rises 19:53:44 0° 277° (W) 2,900 7.8 -24.1°
Reaches altitude 10° 19:55:50 10° 278° (W) 2,084 6.8 -24.4°
Maximum altitude 20:00:39 88° 189° (S) 774 3.4 -25.1°
Enters shadow 20:01:08 75° 105° (ESE) 809 3.3 -25.1°
